DH0GMA Weather Reports


Display with metric or nautical units.
time (UTC)temp
F
wind
direction
speed
MPH
gust
MPH
rain 1hr
in
rain 24hr
in
rain mn
in
humidity
%
barometer
mb
20210128050639 34 202 2.0 5.0 0.02 0.04 0.02 94 1012.4
20210128045637 34 216 2.0 5.0 0.02 0.04 0.02 94 1012.7
20210128044638 34 227 1.0 3.0 0.01 0.03 0.02 94 1012.9
20210128043637 34 172 3.0 4.0 0.01 0.03 0.02 94 1013.1
20210128042637 34 217 2.0 4.0 0.00 0.02 0.01 94 1013.3
20210128041644 34 212 1.0 3.0 0.00 0.02 0.01 94 1013.5
20210128040637 34 196 1.0 3.0 0.00 0.02 0.01 94 1014.0
20210128035636 34 198 2.0 5.0 0.00 0.02 0.01 94 1014.2
20210128034642 34 241 2.0 4.0 0.00 0.02 0.01 94 1014.3
20210128033636 34 189 1.0 4.0 0.00 0.02 0.01 94 1014.6
20210128032636 34 174 1.0 5.0 0.00 0.02 0.01 94 1014.8
20210128031640 34 174 2.0 4.0 0.00 0.02 0.01 94 1014.7
20210128030636 34 194 2.0 5.0 0.00 0.02 0.01 94 1014.8
20210128025704 34 201 2.0 6.0 0.00 0.02 0.01 94 1014.9
20210128024712 34 195 3.0 6.0 0.00 0.02 0.01 94 1015.0
20210128023646 33 189 2.0 6.0 0.00 0.02 0.01 94 1015.0
20210128022636 33 200 2.0 5.0 0.00 0.02 0.01 94 1015.3
20210128021636 33 184 1.0 4.0 0.00 0.02 0.01 94 1015.6
20210128020637 33 195 2.0 5.0 0.00 0.02 0.01 94 1015.5
20210128015642 33 177 3.0 5.0 0.00 0.02 0.01 94 1015.7
20210128014641 33 174 2.0 6.0 0.01 0.02 0.01 94 1015.5
20210128013638 33 186 1.0 4.0 0.01 0.02 0.01 94 1015.7
20210128012640 33 192 3.0 4.0 0.01 0.02 0.01 94 1015.9
20210128011638 33 158 1.0 5.0 0.01 0.02 0.01 94 1016.1
20210128010544 33 185 3.0 5.0 0.01 0.02 0.01 93 1016.0
20210128005541 33 197 2.0 5.0 0.01 0.02 0.01 94 1016.1
20210128004650 33 183 2.0 4.0 0.00 0.02 0.00 93 1016.1
20210128003540 33 258 2.0 5.0 0.00 0.02 0.00 93 1016.3
20210127230356 33 198 1.0 2.0 0.00 0.02 0.00 93 1016.8
20210127225359 33 201 2.0 4.0 0.00 0.02 0.02 93 1016.8
20210127224356 33 171 2.0 4.0 0.00 0.02 0.02 93 1017.0
20210127223400 33 262 1.0 3.0 0.00 0.02 0.02 93 1016.9
20210127222357 33 177 3.0 5.0 0.00 0.02 0.02 93 1016.8
20210127221357 33 189 2.0 4.0 0.00 0.02 0.02 93 1016.8
20210127220404 33 189 2.0 5.0 0.00 0.02 0.02 93 1016.7
20210127215357 33 192 1.0 3.0 0.00 0.02 0.02 93 1016.7
20210127214358 33 203 3.0 5.0 0.00 0.02 0.02 93 1016.6
20210127213358 33 172 2.0 4.0 0.00 0.02 0.02 93 1016.8
20210127212358 33 157 2.0 4.0 0.00 0.02 0.02 92 1016.7
20210127211356 33 194 2.0 3.0 0.00 0.02 0.02 92 1016.5
20210127210356 33 191 2.0 3.0 0.00 0.02 0.02 92 1016.5
20210127205359 33 163 1.0 3.0 0.00 0.02 0.02 92 1016.4
20210127204418 33 187 1.0 5.0 0.00 0.02 0.02 92 1016.3
20210127203356 32 215 2.0 5.0 0.00 0.02 0.02 92 1016.4
20210127202359 32 207 1.0 4.0 0.00 0.02 0.02 91 1016.3
20210127201357 32 185 1.0 3.0 0.00 0.02 0.02 91 1016.3
20210127200357 32 222 2.0 4.0 0.00 0.02 0.02 91 1016.3
20210127195356 32 159 1.0 4.0 0.00 0.02 0.02 91 1016.3
20210127194435 32 177 1.0 4.0 0.00 0.02 0.02 90 1016.3
20210127193404 32 166 1.0 4.0 0.00 0.02 0.02 90 1016.2
20210127192401 32 167 1.0 3.0 0.00 0.02 0.02 90 1016.2
20210127191359 32 182 1.0 4.0 0.00 0.02 0.02 90 1016.3
20210127190356 32 168 2.0 5.0 0.00 0.02 0.02 90 1016.2
20210127185356 32 147 1.0 4.0 0.00 0.02 0.02 90 1016.1
20210127184359 32 219 2.0 5.0 0.00 0.02 0.02 90 1016.1
20210127183411 31 163 2.0 8.0 0.00 0.02 0.02 90 1015.9
20210127182356 31 158 1.0 4.0 0.00 0.02 0.02 90 1016.0
20210127181359 31 245 1.0 4.0 0.00 0.02 0.02 90 1016.0
20210127180404 31 244 3.0 5.0 0.00 0.02 0.02 89 1016.1
20210127175356 31 232 2.0 4.0 0.00 0.02 0.02 89 1016.0
20210127174358 31 243 1.0 3.0 0.00 0.02 0.02 89 1016.0
20210127173356 31 241 2.0 5.0 0.00 0.02 0.02 89 1016.0
20210127172408 31 268 2.0 5.0 0.00 0.02 0.02 89 1015.9
20210127171356 31 156 1.0 7.0 0.00 0.02 0.02 89 1015.8
20210127170356 31 146 1.0 6.0 0.00 0.02 0.02 88 1015.8
20210127165407 31 158 4.0 7.0 0.00 0.02 0.02 89 1015.9
20210127164358 31 205 3.0 6.0 0.00 0.02 0.02 89 1016.0
20210127163400 31 237 1.0 7.0 0.00 0.02 0.02 89 1015.9
20210127162356 31 258 4.0 9.0 0.00 0.02 0.02 89 1015.7
20210127161401 31 200 1.0 5.0 0.00 0.02 0.02 89 1015.8
20210127160356 31 185 3.0 4.0 0.02 0.02 0.02 89 1015.7
20210127155358 31 197 2.0 8.0 0.02 0.02 0.02 89 1015.6
20210127154358 31 227 2.0 6.0 0.02 0.02 0.02 89 1015.7
20210127153355 31 197 2.0 11.0 0.00 0.00 0.00 89 1015.8
20210127152355 31 232 4.0 9.0 0.00 0.00 0.00 90 1015.8
20210127151356 31 174 4.0 8.0 0.00 0.00 0.00 90 1015.8
20210127150359 31 210 4.0 8.0 0.00 0.00 0.00 90 1015.9
20210127145355 31 178 2.0 8.0 0.00 0.00 0.00 89 1015.9
20210127144358 31 182 4.0 10.0 0.00 0.00 0.00 88 1016.0
20210127143355 31 142 4.0 8.0 0.00 0.00 0.00 88 1015.9
20210127142355 31 177 3.0 8.0 0.00 0.00 0.00 88 1016.1
20210127141355 31 92 4.0 7.0 0.00 0.00 0.00 88 1016.1
20210127140355 31 158 3.0 8.0 0.00 0.00 0.00 89 1016.1
20210127135355 31 187 3.0 6.0 0.00 0.01 0.00 89 1016.0
20210127134359 30 152 2.0 3.0 0.00 0.01 0.00 89 1016.7
20210127133356 30 162 2.0 4.0 0.00 0.01 0.00 89 1016.7
20210127132355 30 136 2.0 4.0 0.00 0.01 0.00 89 1016.8
20210127131355 29 185 2.0 4.0 0.00 0.01 0.00 90 1016.8
20210127130358 29 201 1.0 4.0 0.00 0.01 0.00 90 1017.1
20210127125400 29 184 1.0 7.0 0.00 0.02 0.00 90 1017.2
20210127124355 29 193 2.0 7.0 0.00 0.02 0.00 89 1017.3
20210127123356 29 170 1.0 4.0 0.00 0.02 0.00 89 1017.5
20210127122401 29 163 2.0 5.0 0.00 0.02 0.00 89 1017.5
20210127121355 29 201 2.0 4.0 0.00 0.02 0.00 89 1017.6
20210127120355 29 177 2.0 4.0 0.00 0.02 0.00 90 1017.7
20210127115357 28 254 2.0 5.0 0.00 0.02 0.00 90 1017.7
20210127114355 28 218 2.0 7.0 0.00 0.02 0.00 90 1017.9
20210127113409 28 227 3.0 5.0 0.00 0.02 0.00 90 1018.4
20210127112356 28 177 3.0 5.0 0.00 0.02 0.00 90 1018.0
20210127111356 28 210 3.0 7.0 0.00 0.02 0.00 89 1018.1
20210127110355 28 187 2.0 7.0 0.00 0.02 0.00 89 1018.2
20210127105300 28 144 3.0 6.0 0.00 0.02 0.00 89 1018.4
20210127104259 28 162 3.0 6.0 0.00 0.02 0.00 88 1018.5
20210127103259 28 198 3.0 7.0 0.00 0.02 0.00 88 1018.6
20210127102210 28 206 3.0 4.0 0.00 0.02 0.00 88 1018.6
20210127101207 28 181 3.0 4.0 0.00 0.02 0.00 87 1018.6
20210127100207 28 221 2.0 4.0 0.00 0.02 0.00 87 1018.6
20210127095207 28 190 3.0 4.0 0.00 0.02 0.00 86 1018.7
20210127094239 29 163 1.0 4.0 0.00 0.02 0.00 84 1018.7
20210127093219 29 169 1.0 5.0 0.00 0.02 0.00 82 1018.9
20210127092205 29 219 2.0 3.0 0.00 0.02 0.00 82 1018.9
20210127091211 29 237 1.0 3.0 0.00 0.02 0.00 81 1019.0
20210127090205 29 227 2.0 5.0 0.00 0.02 0.00 81 1019.0
20210127085209 28 178 2.0 6.0 0.00 0.02 0.00 80 1019.0
20210127084207 28 162 1.0 3.0 0.00 0.02 0.00 79 1018.6
20210127083205 28 145 2.0 4.0 0.00 0.02 0.00 78 1018.6
20210127082205 28 237 1.0 3.0 0.00 0.02 0.00 78 1018.8
20210127081206 28 164 2.0 4.0 0.00 0.02 0.00 78 1018.8
20210127080205 28 201 2.0 3.0 0.00 0.02 0.00 79 1018.7
20210127075121 27 186 0.0 3.0 0.00 0.02 0.00 80 1018.7
20210127074112 27 169 2.0 4.0 0.00 0.02 0.00 80 1018.6
20210127073112 27 167 2.0 6.0 0.00 0.02 0.00 80 1018.5
20210127072109 27 212 3.0 5.0 0.00 0.02 0.00 81 1018.5
20210127071109 27 220 3.0 4.0 0.00 0.02 0.00 81 1018.5
20210127070109 26 193 2.0 4.0 0.00 0.02 0.00 82 1018.5
20210127065110 26 174 0.0 2.0 0.00 0.02 0.00 83 1018.8
20210127064115 26 174 0.0 2.0 0.00 0.02 0.00 83 1018.6
20210127063113 26 174 0.0 2.0 0.00 0.02 0.00 83 1018.7
20210127062115 26 174 0.0 1.0 0.00 0.02 0.00 82 1018.7
20210127061110 26 174 0.0 2.0 0.00 0.02 0.00 82 1018.6
20210127060111 26 176 0.0 2.0 0.00 0.02 0.00 83 1018.6
20210127055109 26 186 0.0 2.0 0.00 0.02 0.00 83 1018.8
20210127054112 26 185 0.0 2.0 0.00 0.02 0.00 83 1019.0
20210127053940 26 185 0.0 2.0 0.00 0.02 0.00 83 1018.9
20210127052935 26 186 1.0 3.0 0.00 0.02 0.00 84 1019.0
20210127051935 26 176 1.0 3.0 0.00 0.02 0.00 85 1019.0